havefunteaching.com alexa rank chart, havefunteaching.com alexa rank daily changes

havefunteaching.com alexa rank chart, havefunteaching.com alexa rank daily changes

havefunteaching.com
Actual rank:
34 799

RANK HISTORY

Date Rank Diff
2017/05/01 34 799 +1 335
2017/04/30 33 464 +159
2017/04/29 33 305 +433
2017/04/28 32 872 -229
2017/04/27 33 101 -741
2017/04/26 33 842 -317
2017/04/25 34 159 +753
2017/04/24 33 406 +1 287
2017/04/23 32 119 -137
2017/04/22 32 256 -68
2017/04/21 32 324 -157
2017/04/20 32 481 -500
2017/04/19 32 981 -249
2017/04/18 33 230 +835
2017/04/17 32 395 +957
2017/04/16 31 438 +217
2017/04/15 31 221 +347
2017/04/14 30 874 -172
2017/04/13 31 046 -685
2017/04/12 31 731 -20
2017/04/11 31 751 +841
2017/04/10 30 910 +467
2017/04/09 30 443 +467
2017/04/08 29 976 +721
2017/04/07 29 255 +438
2017/04/06 28 817 -273
2017/04/05 29 090 -82
2017/04/04 29 172 +762
2017/04/03 28 410 +837
2017/04/02 27 573 +320
2017/04/01 27 253 -371
2017/03/31 27 624 +107
2017/03/30 27 517 +47
2017/03/29 27 470 +563
2017/03/28 26 907 +305
2017/03/27 26 602 -45
2017/03/26 26 647 +479
2017/03/25 26 168 +558
2017/03/24 25 610 +220
2017/03/23 25 390 +759
2017/03/22 24 631 +353
2017/03/21 24 278 +51
2017/03/20 24 227 +227
2017/03/19 24 000 +473
2017/03/18 23 527 +463
2017/03/17 23 064 +203
2017/03/16 22 861 +542
2017/03/15 22 319 +375
2017/03/14 21 944 +81
2017/03/13 21 863 +114
2017/03/12 21 749 +187
2017/03/11 21 562 +433
2017/03/10 21 129 +216
2017/03/09 20 913 +547
2017/03/08 20 366 +142
2017/03/07 20 224 +150
2017/03/06 20 074

WIDGET FOR YOUR SITE

DOMAINS WITH THE NEAREST RANK

Domain Rank
wu.ac.at 34 794
replaypoker.com 34 795
tesall.ru 34 796
humankinetics.com 34 797
onetonline.org 34 798
havefunteaching.com 34 799
cargeek.ir 34 800
defense.gouv.fr 34 801
myjewishlearning.com 34 802
lenscrafters.com 34 803
meduniver.com 34 804

DOMAINS WITH THE NEAREST RANK BY TLD .com

Domain Rank
audiorok.com 34 788
doxxbet.com 34 790
csgo-stats.com 34 792
replaypoker.com 34 795
humankinetics.com 34 797
havefunteaching.com 34 799
myjewishlearning.com 34 802
lenscrafters.com 34 803
meduniver.com 34 804
task-notes.com 34 805
domain-error.com 34 808